******** Week 387 almanac for PRN-01 ******** ID: 01 Health: 000 Eccentricity: 0.1930713654E-002 Time of Applicability(s): 61440.0000 Orbital Inclination(rad): 0.9568109291 Rate of Right Ascen(r/s): -0.7920329914E-008 SQRT(A) (m 1/2): 5153.544434 Right Ascen at Week(rad): -0.2468930094E+000 Argument of Perigee(rad): 0.149080762 Mean Anom(rad): 0.1173659337E+001 Af0(s): 0.1783370972E-003 Af1(s/s): -0.7275957614E-011 week: 387 ******** Week 387 almanac for PRN-02 ******** ID: 02 Health: 000 Eccentricity: 0.1702022552E-001 Time of Applicability(s): 61440.0000 Orbital Inclination(rad): 0.9615506900 Rate of Right Ascen(r/s): -0.7748894201E-008 SQRT(A) (m 1/2): 5153.668457 Right Ascen at Week(rad): -0.4085231272E+000 Argument of Perigee(rad): -0.714220481 Mean Anom(rad): 0.2464061503E+001 Af0(s): 0.1707077026E-003 Af1(s/s): 0.7275957614E-011 week: 387 ******** Week 387 almanac for PRN-03 ******** ID: 03 Health: 000 Eccentricity: 0.6933212280E-002 Time of Applicability(s): 61440.0000 Orbital Inclination(rad): 0.9954540623 Rate of Right Ascen(r/s): -0.7874613724E-008 SQRT(A) (m 1/2): 5153.697266 Right Ascen at Week(rad): 0.7466228292E+000 Argument of Perigee(rad): 1.296818220 Mean Anom(rad): -0.1049208779E+001 Af0(s): 0.2822875977E-003 Af1(s/s): -0.2182787284E-010 week: 387 ******** Week 387 almanac for PRN-04 ******** ID: 04 Health: 000 Eccentricity: 0.3915309906E-002 Time of Applicability(s): 61440.0000 Orbital Inclination(rad): 0.9725222479 Rate of Right Ascen(r/s): -0.7817468486E-008 SQRT(A) (m 1/2): 5153.620605 Right Ascen at Week(rad): 0.1814310534E+001 Argument of Perigee(rad): -2.914282991 Mean Anom(rad): 0.2004381839E+001 Af0(s): 0.6484985352E-004 Af1(s/s): 0.0000000000E+000 week: 387 ******** Week 387 almanac for PRN-05 ******** ID: 05 Health: 000 Eccentricity: 0.5402565002E-002 Time of Applicability(s): 61440.0000 Orbital Inclination(rad): 0.9818339907 Rate of Right Ascen(r/s): -0.8023191341E-008 SQRT(A) (m 1/2): 5153.513672 Right Ascen at Week(rad): 0.6844063511E+000 Argument of Perigee(rad): 1.503753951 Mean Anom(rad): 0.2514222225E+001 Af0(s): -0.2365112305E-003 Af1(s/s): 0.0000000000E+000 week: 387 ******** Week 387 almanac for PRN-06 ******** ID: 06 Health: 000 Eccentricity: 0.3782272339E-002 Time of Applicability(s): 61440.0000 Orbital Inclination(rad): 0.9855071556 Rate of Right Ascen(r/s): -0.7623174679E-008 SQRT(A) (m 1/2): 5153.712891 Right Ascen at Week(rad): -0.2910803446E+000 Argument of Perigee(rad): -0.572478185 Mean Anom(rad): 0.3057632672E+000 Af0(s): -0.5302429199E-003 Af1(s/s): 0.1091393642E-010 week: 387 ******** Week 387 almanac for PRN-07 ******** ID: 07 Health: 000 Eccentricity: 0.2092552185E-001 Time of Applicability(s): 61440.0000 Orbital Inclination(rad): 0.9516816808 Rate of Right Ascen(r/s): -0.7771752296E-008 SQRT(A) (m 1/2): 5153.717773 Right Ascen at Week(rad): 0.2821327351E+001 Argument of Perigee(rad): -1.950363694 Mean Anom(rad): -0.5207542699E+000 Af0(s): -0.2222061157E-003 Af1(s/s): -0.3637978807E-011 week: 387 ******** Week 387 almanac for PRN-08 ******** ID: 08 Health: 000 Eccentricity: 0.1181030273E-001 Time of Applicability(s): 61440.0000 Orbital Inclination(rad): 0.9407580598 Rate of Right Ascen(r/s): -0.8057478483E-008 SQRT(A) (m 1/2): 5153.710938 Right Ascen at Week(rad): -0.1418836355E+001 Argument of Perigee(rad): 0.550450430 Mean Anom(rad): 0.2208567939E+001 Af0(s): 0.3538131714E-003 Af1(s/s): -0.1091393642E-010 week: 387 ******** Week 387 almanac for PRN-09 ******** ID: 09 Health: 000 Eccentricity: 0.3830432892E-002 Time of Applicability(s): 61440.0000 Orbital Inclination(rad): 0.9668297411 Rate of Right Ascen(r/s): -0.7908900866E-008 SQRT(A) (m 1/2): 5153.627441 Right Ascen at Week(rad): 0.1748781166E+001 Argument of Perigee(rad): 2.055269479 Mean Anom(rad): 0.2838022500E+001 Af0(s): 0.6847381592E-003 Af1(s/s): -0.7275957614E-011 week: 387 ******** Week 387 almanac for PRN-10 ******** ID: 10 Health: 000 Eccentricity: 0.1134681702E-001 Time of Applicability(s): 61440.0000 Orbital Inclination(rad): 0.9949507248 Rate of Right Ascen(r/s): -0.7886042771E-008 SQRT(A) (m 1/2): 5153.606934 Right Ascen at Week(rad): 0.7441136321E+000 Argument of Perigee(rad): -2.263847049 Mean Anom(rad): -0.1945052061E+001 Af0(s): -0.5378723145E-003 Af1(s/s): 0.7275957614E-011 week: 387 ******** Week 387 almanac for PRN-11 ******** ID: 11 Health: 000 Eccentricity: 0.2665519714E-002 Time of Applicability(s): 61440.0000 Orbital Inclination(rad): 0.9624075621 Rate of Right Ascen(r/s): -0.7840326581E-008 SQRT(A) (m 1/2): 5153.628418 Right Ascen at Week(rad): -0.2764442355E+000 Argument of Perigee(rad): -2.319737355 Mean Anom(rad): 0.1505373320E+001 Af0(s): -0.2183914185E-003 Af1(s/s): 0.1091393642E-010 week: 387 ******** Week 387 almanac for PRN-12 ******** ID: 12 Health: 000 Eccentricity: 0.8760929108E-002 Time of Applicability(s): 61440.0000 Orbital Inclination(rad): 0.9585486417 Rate of Right Ascen(r/s): -0.7943188009E-008 SQRT(A) (m 1/2): 5153.618164 Right Ascen at Week(rad): -0.2343229057E+001 Argument of Perigee(rad): 1.590824214 Mean Anom(rad): -0.1283051716E+001 Af0(s): -0.6027221680E-003 Af1(s/s): 0.0000000000E+000 week: 387 ******** Week 387 almanac for PRN-13 ******** ID: 13 Health: 000 Eccentricity: 0.2324581146E-002 Time of Applicability(s): 61440.0000 Orbital Inclination(rad): 0.9591838056 Rate of Right Ascen(r/s): -0.7920329914E-008 SQRT(A) (m 1/2): 5153.493164 Right Ascen at Week(rad): -0.2451631989E+001 Argument of Perigee(rad): 1.787922020 Mean Anom(rad): -0.1342048932E+001 Af0(s): 0.4386901855E-003 Af1(s/s): 0.3637978807E-011 week: 387 ******** Week 387 almanac for PRN-14 ******** ID: 14 Health: 000 Eccentricity: 0.7486343384E-002 Time of Applicability(s): 61440.0000 Orbital Inclination(rad): 0.9419205296 Rate of Right Ascen(r/s): -0.8091765626E-008 SQRT(A) (m 1/2): 5153.589844 Right Ascen at Week(rad): -0.2400880669E+001 Argument of Perigee(rad): -2.673719900 Mean Anom(rad): -0.1387096135E+001 Af0(s): 0.7495880127E-003 Af1(s/s): 0.0000000000E+000 week: 387 ******** Week 387 almanac for PRN-15 ******** ID: 15 Health: 000 Eccentricity: 0.1716041565E-001 Time of Applicability(s): 61440.0000 Orbital Inclination(rad): 0.9449465464 Rate of Right Ascen(r/s): -0.8183198006E-008 SQRT(A) (m 1/2): 5153.720703 Right Ascen at Week(rad): 0.1600180897E+001 Argument of Perigee(rad): 1.558506504 Mean Anom(rad): 0.1169116941E+001 Af0(s): 0.4425048828E-003 Af1(s/s): 0.3637978807E-011 week: 387 ******** Week 387 almanac for PRN-16 ******** ID: 16 Health: 000 Eccentricity: 0.1517152786E-001 Time of Applicability(s): 61440.0000 Orbital Inclination(rad): 0.9575779195 Rate of Right Ascen(r/s): -0.7954617056E-008 SQRT(A) (m 1/2): 5153.672363 Right Ascen at Week(rad): -0.2326557502E+001 Argument of Perigee(rad): 0.944080162 Mean Anom(rad): -0.2989663766E+001 Af0(s): 0.3290176392E-003 Af1(s/s): 0.7275957614E-011 week: 387 ******** Week 387 almanac for PRN-17 ******** ID: 17 Health: 000 Eccentricity: 0.1265239716E-001 Time of Applicability(s): 61440.0000 Orbital Inclination(rad): 0.9563615206 Rate of Right Ascen(r/s): -0.7828897534E-008 SQRT(A) (m 1/2): 5153.649902 Right Ascen at Week(rad): -0.1311263705E+001 Argument of Perigee(rad): -1.086402570 Mean Anom(rad): 0.2233929181E+001 Af0(s): -0.1983642578E-003 Af1(s/s): -0.3637978807E-011 week: 387 ******** Week 387 almanac for PRN-18 ******** ID: 18 Health: 000 Eccentricity: 0.6506443024E-002 Time of Applicability(s): 61440.0000 Orbital Inclination(rad): 0.9704729455 Rate of Right Ascen(r/s): -0.7771752296E-008 SQRT(A) (m 1/2): 5153.569824 Right Ascen at Week(rad): -0.2987742170E+000 Argument of Perigee(rad): -2.830214403 Mean Anom(rad): 0.2715550462E+000 Af0(s): -0.2622604370E-003 Af1(s/s): 0.7275957614E-011 week: 387 ******** Week 387 almanac for PRN-19 ******** ID: 19 Health: 000 Eccentricity: 0.1181268692E-001 Time of Applicability(s): 61440.0000 Orbital Inclination(rad): 0.9555046485 Rate of Right Ascen(r/s): -0.7828897534E-008 SQRT(A) (m 1/2): 5153.531738 Right Ascen at Week(rad): -0.1267513045E+001 Argument of Perigee(rad): 3.057442048 Mean Anom(rad): -0.2435955499E+001 Af0(s): 0.7047653198E-003 Af1(s/s): 0.0000000000E+000 week: 387 ******** Week 387 almanac for PRN-20 ******** ID: 20 Health: 000 Eccentricity: 0.1841545105E-002 Time of Applicability(s): 61440.0000 Orbital Inclination(rad): 0.9621918460 Rate of Right Ascen(r/s): -0.7966046104E-008 SQRT(A) (m 1/2): 5153.579590 Right Ascen at Week(rad): 0.1753435165E+001 Argument of Perigee(rad): -1.704827524 Mean Anom(rad): -0.1459677844E+001 Af0(s): 0.2794265747E-003 Af1(s/s): 0.7275957614E-011 week: 387 ******** Week 387 almanac for PRN-21 ******** ID: 21 Health: 000 Eccentricity: 0.8258819580E-003 Time of Applicability(s): 61440.0000 Orbital Inclination(rad): 0.9648523440 Rate of Right Ascen(r/s): -0.8206056101E-008 SQRT(A) (m 1/2): 5153.571289 Right Ascen at Week(rad): 0.7472422638E+000 Argument of Perigee(rad): -0.164385740 Mean Anom(rad): -0.1603223392E+001 Af0(s): 0.3681182861E-003 Af1(s/s): -0.7275957614E-011 week: 387 ******** Week 387 almanac for PRN-22 ******** ID: 22 Health: 000 Eccentricity: 0.1168537140E-001 Time of Applicability(s): 61440.0000 Orbital Inclination(rad): 0.9570566057 Rate of Right Ascen(r/s): -0.7931758961E-008 SQRT(A) (m 1/2): 5153.654297 Right Ascen at Week(rad): -0.2323165592E+001 Argument of Perigee(rad): -0.973574088 Mean Anom(rad): 0.2835490083E+001 Af0(s): 0.7534027100E-004 Af1(s/s): 0.7275957614E-011 week: 387 ******** Week 387 almanac for PRN-23 ******** ID: 23 Health: 000 Eccentricity: 0.6680011749E-002 Time of Applicability(s): 61440.0000 Orbital Inclination(rad): 0.9898754056 Rate of Right Ascen(r/s): -0.7920329914E-008 SQRT(A) (m 1/2): 5153.694336 Right Ascen at Week(rad): 0.7111225590E+000 Argument of Perigee(rad): -2.730216906 Mean Anom(rad): -0.9719697002E+000 Af0(s): 0.6866455078E-003 Af1(s/s): 0.3637978807E-011 week: 387 ******** Week 387 almanac for PRN-24 ******** ID: 24 Health: 000 Eccentricity: 0.1873683929E-001 Time of Applicability(s): 61440.0000 Orbital Inclination(rad): 0.9358025828 Rate of Right Ascen(r/s): -0.7908900866E-008 SQRT(A) (m 1/2): 5153.673828 Right Ascen at Week(rad): 0.2709503672E+001 Argument of Perigee(rad): 1.177367705 Mean Anom(rad): 0.4588928244E+000 Af0(s): 0.1955032349E-003 Af1(s/s): 0.1818989404E-010 week: 387 ******** Week 387 almanac for PRN-25 ******** ID: 25 Health: 000 Eccentricity: 0.1168966293E-001 Time of Applicability(s): 61440.0000 Orbital Inclination(rad): 0.9470318015 Rate of Right Ascen(r/s): -0.8057478483E-008 SQRT(A) (m 1/2): 5153.211914 Right Ascen at Week(rad): -0.2439192363E+001 Argument of Perigee(rad): 0.982868978 Mean Anom(rad): -0.1138480019E+001 Af0(s): 0.3910064697E-003 Af1(s/s): -0.3637978807E-011 week: 387 ******** Week 387 almanac for PRN-26 ******** ID: 26 Health: 000 Eccentricity: 0.1138067245E-001 Time of Applicability(s): 61440.0000 Orbital Inclination(rad): 0.9278690259 Rate of Right Ascen(r/s): -0.8240343243E-008 SQRT(A) (m 1/2): 5153.533691 Right Ascen at Week(rad): -0.2517247118E+001 Argument of Perigee(rad): 0.728812024 Mean Anom(rad): -0.2192387363E+001 Af0(s): -0.3919601440E-003 Af1(s/s): 0.0000000000E+000 week: 387 ******** Week 387 almanac for PRN-27 ******** ID: 27 Health: 000 Eccentricity: 0.1440811157E-001 Time of Applicability(s): 61440.0000 Orbital Inclination(rad): 0.9498720628 Rate of Right Ascen(r/s): -0.7966046104E-008 SQRT(A) (m 1/2): 5153.618652 Right Ascen at Week(rad): -0.1385188771E+001 Argument of Perigee(rad): 0.903551011 Mean Anom(rad): 0.2387842581E+001 Af0(s): 0.0000000000E+000 Af1(s/s): 0.0000000000E+000 week: 387 ******** Week 387 almanac for PRN-28 ******** ID: 28 Health: 000 Eccentricity: 0.5106925964E-003 Time of Applicability(s): 61440.0000 Orbital Inclination(rad): 0.9625693491 Rate of Right Ascen(r/s): -0.7646032774E-008 SQRT(A) (m 1/2): 5153.604980 Right Ascen at Week(rad): 0.2797706443E+001 Argument of Perigee(rad): -0.134975704 Mean Anom(rad): 0.6639260598E-002 Af0(s): -0.4215240479E-003 Af1(s/s): 0.1091393642E-010 week: 387 ******** Week 387 almanac for PRN-29 ******** ID: 29 Health: 000 Eccentricity: 0.3658771515E-002 Time of Applicability(s): 61440.0000 Orbital Inclination(rad): 0.9590699555 Rate of Right Ascen(r/s): -0.7794610391E-008 SQRT(A) (m 1/2): 5153.612793 Right Ascen at Week(rad): -0.1294010541E+001 Argument of Perigee(rad): 2.903670211 Mean Anom(rad): 0.2055160498E+001 Af0(s): -0.2479553223E-003 Af1(s/s): 0.7275957614E-011 week: 387 ******** Week 387 almanac for PRN-30 ******** ID: 30 Health: 000 Eccentricity: 0.8189201355E-002 Time of Applicability(s): 61440.0000 Orbital Inclination(rad): 0.9369950132 Rate of Right Ascen(r/s): -0.7908900866E-008 SQRT(A) (m 1/2): 5153.602539 Right Ascen at Week(rad): 0.2809567830E+001 Argument of Perigee(rad): -2.258399844 Mean Anom(rad): -0.7904322869E+000 Af0(s): 0.3547668457E-003 Af1(s/s): 0.1091393642E-010 week: 387 ******** Week 387 almanac for PRN-31 ******** ID: 31 Health: 000 Eccentricity: 0.1106452942E-001 Time of Applicability(s): 61440.0000 Orbital Inclination(rad): 0.9553848063 Rate of Right Ascen(r/s): -0.7691748964E-008 SQRT(A) (m 1/2): 5153.604980 Right Ascen at Week(rad): 0.2846343671E+001 Argument of Perigee(rad): 1.003466865 Mean Anom(rad): -0.1601779668E+001 Af0(s): -0.1230239868E-003 Af1(s/s): 0.3637978807E-011 week: 387 ******** Week 387 almanac for PRN-32 ******** ID: 32 Health: 000 Eccentricity: 0.9525775909E-002 Time of Applicability(s): 61440.0000 Orbital Inclination(rad): 0.9697718683 Rate of Right Ascen(r/s): -0.7874613724E-008 SQRT(A) (m 1/2): 5153.549805 Right Ascen at Week(rad): 0.1766415953E+001 Argument of Perigee(rad): -1.974275593 Mean Anom(rad): 0.2926468326E+001 Af0(s): 0.2546310425E-003 Af1(s/s): 0.1818989404E-010 week: 387